Weather History for Monett, MO

Change the Weather History Date:

Saturday, May 11, 2013

  Actual Average (KJLN) Record (KJLN)
Temperature  
Mean Temperature 56 °F 66 °F  
Max Temperature 69 °F 77 °F 90 °F (1963)
Min Temperature 42 °F 55 °F 36 °F (1981)
Degree Days  
Heating Degree Days 10 3  
Month to date heating degree days 37  
Since 1 July heating degree days 4040  
Cooling Degree Days 0 3  
Month to date cooling degree days 29  
Year to date cooling degree days 83  
Growing Degree Days 6 (Base 50)    
Moisture  
Dew Point 44 °F    
Average Humidity 70    
Maximum Humidity 100    
Minimum Humidity 34    
Precipitation  
Precipitation 0.00 in 0.19 in 1.72 in (1966)
Month to date precipitation 2.11  
Year to date precipitation 14.35  
Sea Level Pressure  
Sea Level Pressure 30.13 in    
Wind  
Wind Speed 4 mph (NW)    
Max Wind Speed 20 mph    
Max Gust Speed 24 mph    
Visibility 7 miles    
Events Fog    
T = Trace of Precipitation, MM = Missing Value Source: NWS Daily Summary

Daily Weather History Graph

Daily Weather History Graph

Search for Another Location

Airport:

Trip Planner

Search our weather history database for the weather conditions in past years. The results will help you decide how hot, cold, wet, or windy it might be!

Date:

Astronomy

May. 11, 2013 Rise Set
Actual Time 6:11 AM CDT 8:13 PM CDT
Civil Twilight 5:42 AM CDT 8:42 PM CDT
Nautical Twilight 5:07 AM CDT 9:17 PM CDT
Astronomical Twilight 4:30 AM CDT 9:55 PM CDT
Moon 7:20 AM CDT (5/11) 9:53 PM CDT (5/11)
Length of Visible Light 14h 59m
Length of Day
14h 02m
Waxing Crescent, 3% of the Moon is Illuminated
May 11
Waxing Crescent
May 17
First Quarter
May 24
Full
May 31
Last Quarter
Jun 8
New

Hourly Weather History & Observations

Time (CDT) Temp. Windchill Dew Point Humidity Pressure Visibility Wind Dir Wind Speed Gust Speed Precip Events Conditions
12:15 AM 50.0 °F - 50.0 °F 100% 30.07 in 3.0 mi Calm Calm - N/A   Clear
12:35 AM 48.2 °F - 48.2 °F 100% 30.07 in 3.0 mi NW 3.5 mph - N/A   Clear
12:55 AM 50.0 °F - 50.0 °F 100% 30.07 in 1.5 mi Calm Calm - N/A   Mist
1:15 AM 46.4 °F - 46.4 °F 100% 30.08 in 0.2 mi Calm Calm - N/A Fog Fog
1:35 AM 48.2 °F - 48.2 °F 100% 30.08 in 0.5 mi Calm Calm - N/A Fog Fog
1:55 AM 44.6 °F - 44.6 °F 100% 30.07 in 0.2 mi Calm Calm - N/A Fog Fog
2:15 AM 46.4 °F - 46.4 °F 100% 30.08 in 0.2 mi Calm Calm - N/A Fog Fog
2:35 AM 44.6 °F - 44.6 °F 100% 30.08 in 0.2 mi Calm Calm - N/A Fog Fog
2:55 AM 44.6 °F 43.1 °F 44.6 °F 100% 30.08 in 0.2 mi South 3.5 mph - N/A Fog Fog
3:15 AM 44.6 °F - 44.6 °F 100% 30.08 in 0.2 mi Calm Calm - N/A Fog Fog
3:35 AM 44.6 °F - 44.6 °F 100% 30.08 in 0.2 mi Calm Calm - N/A Fog Fog
3:55 AM 44.6 °F - 44.6 °F 100% 30.08 in 0.5 mi Calm Calm - N/A Fog Fog
4:15 AM 44.6 °F - 44.6 °F 100% 30.08 in 0.2 mi Calm Calm - N/A Fog Fog
4:35 AM 44.6 °F - 44.6 °F 100% 30.07 in 0.2 mi Calm Calm - N/A Fog Fog
4:55 AM 44.6 °F - 44.6 °F 100% 30.07 in 0.2 mi Calm Calm - N/A Fog Fog
5:15 AM 42.8 °F - 42.8 °F 100% 30.07 in 0.2 mi Calm Calm - N/A Fog Fog
5:35 AM 42.8 °F - 42.8 °F 100% 30.06 in 0.2 mi Calm Calm - N/A Fog Fog
5:55 AM 42.8 °F - 42.8 °F 100% 30.07 in 0.5 mi Calm Calm - N/A Fog Fog
6:15 AM 42.8 °F - 42.8 °F 100% 30.08 in 0.2 mi Calm Calm - N/A Fog Fog
6:35 AM 42.8 °F - 42.8 °F 100% 30.09 in 0.2 mi Calm Calm - N/A Fog Fog
6:55 AM 42.8 °F 41.1 °F 42.8 °F 100% 30.09 in 0.2 mi SSE 3.5 mph - N/A Fog Fog
7:35 AM 44.6 °F - 44.6 °F 100% 30.10 in 3.0 mi Calm Calm - N/A   Scattered Clouds
7:55 AM 46.4 °F - 46.4 °F 100% 30.10 in 4.0 mi Calm Calm - N/A   Clear
8:15 AM 50.0 °F - 50.0 °F 100% 30.11 in 7.0 mi West 3.5 mph - N/A   Clear
8:35 AM 51.8 °F - 51.8 °F 100% 30.12 in 10.0 mi West 5.8 mph - N/A   Clear
8:55 AM 53.6 °F - 51.8 °F 94% 30.12 in 10.0 mi NW 5.8 mph - N/A   Clear
9:15 AM 55.4 °F - 51.8 °F 88% 30.12 in 10.0 mi Calm Calm - N/A   Clear
9:35 AM 59.0 °F - 53.6 °F 82% 30.12 in 10.0 mi NW 6.9 mph - N/A   Clear
9:55 AM 60.8 °F - 53.6 °F 77% 30.12 in 10.0 mi NW 5.8 mph - N/A   Clear
10:15 AM 62.6 °F - 51.8 °F 68% 30.12 in 10.0 mi West 6.9 mph - N/A   Clear
10:35 AM 64.4 °F - 50.0 °F 59% 30.11 in 10.0 mi WNW 6.9 mph - N/A   Clear
10:55 AM 64.4 °F - 50.0 °F 59% 30.11 in 10.0 mi WNW 9.2 mph - N/A   Clear
11:15 AM 66.2 °F - 50.0 °F 56% 30.12 in 10.0 mi NNW 11.5 mph - N/A   Clear
11:35 AM 68.0 °F - 50.0 °F 52% 30.12 in 10.0 mi NW 10.4 mph - N/A   Clear
11:55 AM 68.0 °F - 50.0 °F 52% 30.12 in 10.0 mi WNW 10.4 mph 16.1 mph N/A   Clear
12:15 PM 68.0 °F - 51.8 °F 56% 30.12 in 10.0 mi NW 11.5 mph - N/A   Scattered Clouds
12:35 PM 68.0 °F - 51.8 °F 56% 30.12 in 10.0 mi NNW 12.7 mph 18.4 mph N/A   Scattered Clouds
12:55 PM 68.0 °F - 51.8 °F 56% 30.12 in 10.0 mi WNW 11.5 mph 16.1 mph N/A   Scattered Clouds
1:15 PM 69.8 °F - 51.8 °F 53% 30.12 in 10.0 mi WNW 11.5 mph 20.7 mph N/A   Mostly Cloudy
1:35 PM 69.8 °F - 51.8 °F 53% 30.12 in 10.0 mi NW 11.5 mph 18.4 mph N/A   Overcast
1:55 PM 69.8 °F - 53.6 °F 56% 30.12 in 10.0 mi NW 13.8 mph 18.4 mph N/A   Overcast
2:15 PM 68.0 °F - 53.6 °F 60% 30.13 in 10.0 mi NNW 15.0 mph 23.0 mph N/A   Mostly Cloudy
2:35 PM 68.0 °F - 53.6 °F 60% 30.13 in 10.0 mi North 17.3 mph 23.0 mph N/A   Scattered Clouds
2:55 PM 68.0 °F - 50.0 °F 52% 30.14 in 10.0 mi NNW 15.0 mph 21.9 mph N/A   Clear
3:15 PM 68.0 °F - 50.0 °F 52% 30.14 in 10.0 mi NNW 18.4 mph 21.9 mph N/A   Clear
3:35 PM 66.2 °F - 44.6 °F 46% 30.14 in 10.0 mi NW 16.1 mph 24.2 mph N/A   Clear
3:55 PM 66.2 °F - 41.0 °F 40% 30.14 in 10.0 mi NNW 19.6 mph 23.0 mph N/A   Clear
4:15 PM 66.2 °F - 41.0 °F 40% 30.14 in 10.0 mi NNW 16.1 mph - N/A   Clear
4:35 PM 66.2 °F - 39.2 °F 37% 30.14 in 10.0 mi NNW 16.1 mph 20.7 mph N/A   Clear
4:55 PM 64.4 °F - 37.4 °F 37% 30.15 in 10.0 mi NNW 16.1 mph 21.9 mph N/A   Clear
5:15 PM 64.4 °F - 37.4 °F 37% 30.15 in 10.0 mi NNW 17.3 mph 20.7 mph N/A   Clear
5:35 PM 64.4 °F - 35.6 °F 34% 30.15 in 10.0 mi North 13.8 mph 19.6 mph N/A   Clear
5:55 PM 64.4 °F - 37.4 °F 37% 30.15 in 10.0 mi NNW 13.8 mph 17.3 mph N/A   Clear
6:15 PM 62.6 °F - 37.4 °F 39% 30.15 in 10.0 mi NNW 13.8 mph 21.9 mph N/A   Clear
6:35 PM 62.6 °F - 35.6 °F 37% 30.15 in 10.0 mi NNW 12.7 mph 19.6 mph N/A   Clear
6:55 PM 62.6 °F - 35.6 °F 37% 30.15 in 10.0 mi North 12.7 mph 19.6 mph N/A   Clear
7:15 PM 60.8 °F - 37.4 °F 42% 30.16 in 10.0 mi North 9.2 mph - N/A   Clear
7:35 PM 60.8 °F - 37.4 °F 42% 30.16 in 10.0 mi North 8.1 mph - N/A   Clear
7:55 PM 59.0 °F - 37.4 °F 45% 30.17 in 10.0 mi NNW 6.9 mph - N/A   Clear
8:15 PM 57.2 °F - 37.4 °F 48% 30.17 in 10.0 mi NNW 4.6 mph - N/A   Clear
8:35 PM 55.4 °F - 37.4 °F 51% 30.18 in 10.0 mi North 4.6 mph - N/A   Clear
8:55 PM 55.4 °F - 37.4 °F 51% 30.18 in 10.0 mi NW 5.8 mph - N/A   Clear
9:15 PM 53.6 °F - 37.4 °F 54% 30.19 in 10.0 mi NNW 6.9 mph - N/A   Clear
9:35 PM 53.6 °F - 37.4 °F 54% 30.19 in 10.0 mi NNW 6.9 mph - N/A   Clear
9:55 PM 51.8 °F - 35.6 °F 54% 30.20 in 10.0 mi NNW 4.6 mph - N/A   Clear
10:15 PM 51.8 °F - 37.4 °F 58% 30.20 in 10.0 mi NNW 3.5 mph - N/A   Clear
10:35 PM 51.8 °F - 35.6 °F 54% 30.20 in 10.0 mi Calm Calm - N/A   Clear
10:55 PM 50.0 °F - 35.6 °F 58% 30.21 in 10.0 mi Calm Calm - N/A   Clear
11:15 PM 50.0 °F - 35.6 °F 58% 30.21 in 10.0 mi Calm Calm - N/A   Clear
11:35 PM 50.0 °F - 35.6 °F 58% 30.21 in 10.0 mi Calm Calm - N/A   Clear
11:55 PM 50.0 °F - 35.6 °F 58% 30.21 in 10.0 mi NNW 3.5 mph - N/A   Clear